Jasikovac, Bosnia and Herzegovina

12:08 AM CEST on June 28, 2017 (GMT +0200)
Jasikovac

Weather History for 14474 - January, 2014

Change the Weather History Date:

Wednesday, January 8, 2014

  Actual Average Record
Temperature  
Mean Temperature 50 °F -  
Max Temperature 60 °F - - ()
Min Temperature 41 °F - - ()
Degree Days  
Heating Degree Days 14    
Moisture  
Dew Point 46 °F    
Average Humidity 82    
Maximum Humidity 100    
Minimum Humidity 63    
Precipitation  
Precipitation 0.00 in - - ()
Sea Level Pressure  
Sea Level Pressure 30.26 in    
Wind  
Wind Speed 5 mph ()    
Max Wind Speed 15 mph    
Max Gust Speed -    
Visibility 14.1 miles    
Events      
T = Trace of Precipitation, MM = Missing Value Source: Averaged Metar Reports

Daily Weather History Graph

Daily Weather History Graph

Search for Another Location

Airport or City:

Trip Planner

Search our weather history database for the weather conditions in past years. The results will help you decide how hot, cold, wet, or windy it might be!

Date:

Astronomy

Jan. 08, 2014 Rise Set
Actual Time 7:16 AM CET 4:30 PM CET
Civil Twilight 6:44 AM CET 5:02 PM CET
Nautical Twilight 6:09 AM CET 5:37 PM CET
Astronomical Twilight 5:35 AM CET 6:11 PM CET
Moon 11:18 AM CET (1/8) No Moon Set
Length of Visible Light 10h 17m
Length of Day
9h 14m
First Quarter, 53% of the Moon is Illuminated
Jan 8
First Quarter
Jan 16
Full
Jan 24
Last Quarter
Jan 30
New
Feb 6
First Quarter

Hourly Weather History & Observations

Time (CET) Temp. Windchill Dew Point Humidity Pressure Visibility Wind Dir Wind Speed Gust Speed Precip Events Conditions
12:00 AM 51.8 °F - 46.4 °F 82% 30.27 in - Variable 5.8 mph - N/A   Clear
12:30 AM 50.0 °F - 46.4 °F 87% 30.27 in - WNW 2.3 mph - N/A   Clear
1:00 AM 50 °F - 45 °F 77% 30.28 in 16 mi East 4.5 mph - -  
1:00 AM 50.0 °F - 44.6 °F 82% 30.27 in - Variable 3.5 mph - N/A   Clear
1:30 AM 48.2 °F - 42.8 °F 82% 30.27 in - Variable 2.3 mph - N/A   Clear
2:00 AM 46.4 °F 43.5 °F 42.8 °F 87% 30.27 in - East 5.8 mph - N/A   Clear
2:30 AM 42.8 °F 40.1 °F 42.8 °F 100% 30.27 in - East 4.6 mph - N/A   Clear
3:00 AM 44.6 °F - 42.8 °F 93% 30.27 in - Calm Calm - N/A   Clear
3:30 AM 46.4 °F - 44.6 °F 93% 30.27 in - Variable 2.3 mph - N/A   Clear
4:00 AM 44 °F - 43 °F 93% 30.30 in 16 mi East 4.5 mph - -  
4:00 AM 46.4 °F 44.3 °F 44.6 °F 93% 30.27 in - East 4.6 mph - N/A   Clear
4:30 AM 42.8 °F 41.1 °F 42.8 °F 100% 30.27 in - ENE 3.5 mph - N/A   Clear
5:00 AM 48.2 °F - 42.8 °F 82% 30.27 in - NE 8.1 mph - N/A   Clear
5:30 AM 42.8 °F 38.6 °F 39.2 °F 87% 30.27 in - ENE 6.9 mph - N/A   Clear
6:00 AM 44.6 °F 42.2 °F 41.0 °F 87% 30.27 in - NE 4.6 mph - N/A   Clear
6:30 AM 44.6 °F 40.7 °F 42.8 °F 93% 30.27 in - East 6.9 mph - N/A   Clear
7:00 AM 46 °F - 42 °F 80% 30.30 in 16 mi East 6.7 mph - -  
7:00 AM 44.6 °F 42.2 °F 41.0 °F 87% 30.27 in - East 4.6 mph - N/A   Clear
7:30 AM 48.2 °F - 42.8 °F 82% 30.27 in - ENE 5.8 mph - N/A   Clear
8:00 AM 46.4 °F 44.3 °F 42.8 °F 87% 30.30 in - NE 4.6 mph - N/A   Clear
8:30 AM 46.4 °F - 42.8 °F 87% 30.30 in - East 2.3 mph - N/A   Clear
9:00 AM 51.8 °F - 46.4 °F 82% 30.30 in - Variable 2.3 mph - N/A   Clear
9:30 AM 53.6 °F - 46.4 °F 77% 30.30 in - East 3.5 mph - N/A   Clear
10:00 AM 55 °F - 47 °F 66% 30.32 in 16 mi East 2.2 mph - -  
10:00 AM 57.2 °F - 46.4 °F 67% 30.30 in - Calm Calm - N/A   Clear
10:30 AM 59.0 °F - 46.4 °F 63% 30.30 in - Variable 1.2 mph - N/A   Clear
11:00 AM 57.2 °F - 44.6 °F 63% 30.30 in - West 4.6 mph - N/A   Clear
11:30 AM 57.2 °F - 46.4 °F 67% 30.27 in - WNW 5.8 mph - N/A   Clear
12:00 PM 57.2 °F - 44.6 °F 63% 30.27 in - West 8.1 mph - N/A   Clear
12:30 PM 57.2 °F - 46.4 °F 67% 30.24 in - WSW 6.9 mph - N/A   Clear
1:00 PM 57 °F - 49 °F 65% 30.27 in 16 mi West 8.9 mph - -   Clear
1:00 PM 57.2 °F - 48.2 °F 72% 30.24 in - WNW 9.2 mph - N/A   Clear
1:30 PM 57.2 °F - 48.2 °F 72% 30.24 in - West 6.9 mph - N/A   Clear
2:00 PM 57.2 °F - 46.4 °F 67% 30.24 in - WNW 8.1 mph - N/A   Clear
2:30 PM 57.2 °F - 50.0 °F 77% 30.24 in - WNW 12.7 mph - N/A   Clear
3:00 PM 57.2 °F - 50.0 °F 77% 30.24 in - WNW 13.8 mph - N/A   Clear
3:30 PM 55.4 °F - 50.0 °F 82% 30.24 in - WNW 15.0 mph - N/A   Clear
4:00 PM 56 °F - 51 °F 76% 30.25 in 12 mi WNW 11.2 mph - -   Clear
4:00 PM 55.4 °F - 50.0 °F 82% 30.24 in - WNW 9.2 mph - N/A   Clear
4:30 PM 53.6 °F - 50.0 °F 88% 30.24 in - WNW 8.1 mph - N/A   Clear
5:00 PM 51.8 °F - 48.2 °F 88% 30.24 in - WNW 10.4 mph - N/A   Clear
5:30 PM 51.8 °F - 48.2 °F 88% 30.24 in - WNW 8.1 mph - N/A   Clear
6:00 PM 51.8 °F - 48.2 °F 88% 30.21 in - WNW 8.1 mph - N/A   Clear
6:30 PM 51.8 °F - 50.0 °F 94% 30.24 in - WNW 3.5 mph - N/A   Clear
7:00 PM 51 °F - 49 °F 90% 30.25 in 9 mi North 2.2 mph - -  
7:00 PM 51.8 °F - 48.2 °F 88% 30.24 in - North 3.5 mph - N/A   Clear
7:30 PM 48.2 °F - 46.4 °F 93% 30.24 in - Variable 2.3 mph - N/A   Clear
8:00 PM 48.2 °F - 44.6 °F 87% 30.24 in - Variable 2.3 mph - N/A   Clear
8:30 PM 48.2 °F - 46.4 °F 93% 30.24 in - ENE 3.5 mph - N/A   Clear
9:00 PM 46.4 °F 44.3 °F 44.6 °F 93% 30.24 in - East 4.6 mph - N/A   Clear
9:30 PM 46.4 °F 44.3 °F 46.4 °F 100% 30.24 in - Variable 4.6 mph - N/A   Clear
10:00 PM 49 °F - 44 °F 77% 30.25 in 12 mi NNE 6.7 mph - -  
10:00 PM 48.2 °F - 44.6 °F 87% 30.24 in - NE 6.9 mph - N/A   Clear
10:30 PM 51.8 °F - 42.8 °F 71% 30.24 in - ENE 6.9 mph - N/A   Clear
11:00 PM 51.8 °F - 42.8 °F 71% 30.21 in - NE 6.9 mph - N/A   Clear
11:30 PM 53.6 °F - 42.8 °F 67% 30.21 in - NE 6.9 mph - N/A   Clear